This demonstration page uses our WeatherBlox Daily Observations layout. Learn more.

Hourly Observations for December 15, 2016

Temp ( °F °C ) Dew Point ( °F °C ) Humidity (%) Winds ( mph kmh ) Pressure ( in mb ) Visibility ( mi km ) Precip ( " mm )
12:54 am 00:54 Clear 5 -15 -1 -18.3 76 76 NE 5 7 30.55 1035 10 16.0934 0 0
1:54 am 01:54 Clear 7 -13.9 -1 -18.3 70 70 Calm 30.56 1035 10 16.0934 0 0
2:54 am 02:54 Clear 3 -16.1 -2 -18.9 79 79 Calm 30.58 1036 10 16.0934 0 0
3:54 am 03:54 Clear 8 -13.3 0 -17.8 69 69 N 3 6 30.58 1036 10 16.0934 0 0
4:54 am 04:54 Mostly Clear 8 -13.3 1 -17.2 73 73 Calm 30.57 1035 10 16.0934 0 0
5:54 am 05:54 Partly Cloudy 10 -12.2 1 -17.2 67 67 NE 3 6 30.55 1034 10 16.0934 0 0
6:54 am 06:54 Cloudy 10 -12.2 -1 -18.3 61 61 E 5 7 30.55 1035 10 16.0934 0 0
7:54 am 07:54 Cloudy 10 -12.2 0 -17.8 63 63 E 9 15 30.53 1034 10 16.0934 0 0
8:54 am 08:54 Cloudy 11 -11.7 2 -16.7 67 67 ESE 5 7 30.55 1035 10 16.0934 0 0
9:54 am 09:54 Cloudy 12 -11.1 0 -17.8 58 58 SE 7 11 30.53 1034 10 16.0934 0 0
10:54 am 10:54 Cloudy 14 -10 2 -16.7 58 58 SE 10 17 30.5 1033 10 16.0934 0 0
11:54 am 11:54 Cloudy 17 -8.3 3 -16.1 54 54 SSE 10 17 30.46 1031 10 16.0934 0 0
12:54 pm 12:54 Cloudy 19 -7.2 4 -15.6 51 51 SE 12 19 30.4 1029 10 16.0934 0 0
1:54 pm 13:54 Mostly Cloudy 21 -6.1 5 -15 50 50 SSE 12 19 30.35 1028 10 16.0934 0 0
2:54 pm 14:54 Cloudy 22 -5.6 5 -15 48 48 SE 14 22 30.3 1026 10 16.0934 0 0
3:54 pm 15:54 Mostly Sunny 24 -4.4 5 -15 44 44 SE 17 28 30.26 1025 10 16.0934 0 0
4:54 pm 16:54 Mostly Sunny 24 -4.4 4 -15.6 42 42 SE 14 22 30.24 1024 10 16.0934 0 0
5:54 pm 17:54 Mostly Clear 24 -4.4 4 -15.6 42 42 SSE 18 30 30.21 1023 10 16.0934 0 0
6:54 pm 18:54 Clear 23 -5 4 -15.6 44 44 SE 15 24 30.18 1022 10 16.0934 0 0
7:54 pm 19:54 Clear 22 -5.6 4 -15.6 46 46 SE 16 26 30.17 1022 10 16.0934 0 0
8:54 pm 20:54 Clear 21 -6.1 4 -15.6 47 47 SE 12 19 30.15 1021 10 16.0934 0 0
9:54 pm 21:54 Mostly Cloudy 21 -6.1 5 -15 50 50 SE 14 22 30.11 1020 10 16.0934 0 0
10:54 pm 22:54 Clear 22 -5.6 5 -15 48 48 SE 10 17 30.09 1019 10 16.0934 0 0
11:54 pm 23:54 Mostly Clear 22 -5.6 6 -14.4 50 50 SE 10 17 30.07 1018 10 16.0934 0 0

Powered by AerisWeather